Location: Beeston
(52.7000°N, 0.8167°E)
Time: 07:15:45
(UTC+00:00)

CZ-4B R/B - Pass Details

Date: 15 May 2026
Orbit: 700 x 797 km, 98.9° (Epoch: 5 June)

Event Time Altitude Azimuth Distance (km) Brightness Sun altitude
Exits shadow 21:23:15 13° 168° (SSE) 1,975 5.1 -11.3°
Maximum altitude 21:27:31 80° 254° (WSW) 734 3.4 -11.6°
Drops below altitude 10° 21:32:25 10° 342° (NNW) 2,235 7.2 -12.1°
Sets 21:34:44 0° 344° (NNW) 3,176 8.3 -12.2°
